When you browse on this site, cookies collect data to enhance your experience and personalize the content and advertising you see.
Visit our Privacy Policy to learn more. By continuing to use the site, you agree to this use of cookies and data.
  • In United Kingdom
  • List of Countries
  • For 7 days
  • Water Temperature
  • Weather Map
  • Weather Widgets
  • user-avatar
    Login

    Hourly Weather Cambridge

    Today, 2 June, Tuesday

    Time Temperature Precipitation Wind Pressure Humidity
    00:00 +9°C° 0 mm 2 mps 765 mmHg 92%
    01:00 +9°C° 0 mm 2 mps 765 mmHg 93%
    02:00 +8°C° 0 mm 2 mps 765 mmHg 93%
    03:00 +8°C° 0 mm 2 mps 765 mmHg 94%
    04:00 +9°C° 0 mm 2 mps 765 mmHg 93%
    05:00 +10°C° 0 mm 2 mps 764 mmHg 91%
    06:00 +11°C° 0 mm 3 mps 764 mmHg 90%
    07:00 +13°C° 0 mm 3 mps 764 mmHg 84%
    08:00 +16°C° 0 mm 3 mps 764 mmHg 78%
    09:00 +17°C° 0 mm 3 mps 764 mmHg 72%
    10:00 +18°C° 0 mm 3 mps 763 mmHg 67%
    11:00 +19°C° 0 mm 3 mps 763 mmHg 63%
    12:00 +21°C° 0 mm 2 mps 763 mmHg 60%
    13:00 +21°C° 0 mm 2 mps 762 mmHg 59%
    14:00 +21°C° 0 mm 3 mps 762 mmHg 59%
    15:00 +21°C° 0 mm 3 mps 761 mmHg 58%
    16:00 +21°C° 0 mm 2 mps 761 mmHg 62%
    17:00 +20°C° 0 mm 2 mps 760 mmHg 66%
    18:00 +20°C° 0 mm 2 mps 760 mmHg 70%
    19:00 +19°C° 0 mm 1 mps 760 mmHg 75%
    20:00 +15°C° 0 mm 1 mps 759 mmHg 80%
    21:00 +13°C° 0 mm 1 mps 759 mmHg 84%
    22:00 +12°C° 0 mm 0 mps 759 mmHg 84%
    23:00 +11°C° 0 mm 0 mps 758 mmHg 84%

    Tomorrow, 3 June, Wednesday

    Time Temperature Precipitation Wind Pressure Humidity
    00:00 +11°C° 0 mm 0 mps 758 mmHg 84%
    01:00 +12°C° 0 mm 1 mps 757 mmHg 83%
    02:00 +12°C° 0 mm 1 mps 757 mmHg 81%
    03:00 +12°C° 0 mm 1 mps 756 mmHg 80%
    04:00 +13°C° 0 mm 2 mps 756 mmHg 80%
    05:00 +13°C° 0 mm 2 mps 756 mmHg 81%
    06:00 +13°C° 0 mm 2 mps 755 mmHg 81%
    07:00 +13°C° 0.1 mm 2 mps 755 mmHg 83%
    08:00 +13°C° 0.1 mm 2 mps 755 mmHg 85%
    09:00 +13°C° 0.1 mm 2 mps 755 mmHg 86%
    10:00 +13°C° 0.2 mm 2 mps 755 mmHg 88%
    11:00 +12°C° 0.2 mm 3 mps 755 mmHg 90%
    12:00 +12°C° 0.2 mm 3 mps 755 mmHg 93%
    13:00 +12°C° 0.1 mm 4 mps 755 mmHg 91%
    14:00 +12°C° 0.1 mm 4 mps 754 mmHg 90%
    15:00 +13°C° 0.1 mm 4 mps 754 mmHg 89%
    16:00 +13°C° 0 mm 5 mps 754 mmHg 87%
    17:00 +13°C° 0 mm 5 mps 754 mmHg 85%
    18:00 +13°C° 0 mm 5 mps 753 mmHg 84%
    19:00 +12°C° 0 mm 5 mps 754 mmHg 84%
    20:00 +12°C° 0 mm 4 mps 754 mmHg 84%
    21:00 +12°C° 0 mm 4 mps 754 mmHg 84%
    22:00 +11°C° 0 mm 4 mps 753 mmHg 86%
    23:00 +11°C° 0 mm 4 mps 753 mmHg 88%

    Day after tomorrow, 4 June, Thursday

    Time Temperature Precipitation Wind Pressure Humidity
    00:00 +10°C° 0 mm 4 mps 753 mmHg 90%
    01:00 +8°C° 0 mm 4 mps 753 mmHg 93%
    02:00 +7°C° 0 mm 4 mps 752 mmHg 95%
    03:00 +7°C° 0 mm 3 mps 752 mmHg 98%
    04:00 +7°C° 0.1 mm 4 mps 752 mmHg 96%
    05:00 +8°C° 0.1 mm 4 mps 752 mmHg 94%
    06:00 +9°C° 0.1 mm 5 mps 751 mmHg 93%
    07:00 +10°C° 0.2 mm 5 mps 751 mmHg 89%
    08:00 +12°C° 0.2 mm 5 mps 751 mmHg 84%
    09:00 +13°C° 0.2 mm 5 mps 751 mmHg 80%
    10:00 +13°C° 0.3 mm 5 mps 751 mmHg 76%
    11:00 +14°C° 0.3 mm 5 mps 751 mmHg 72%
    12:00 +14°C° 0.3 mm 5 mps 751 mmHg 68%
    13:00 +14°C° 0.1 mm 5 mps 750 mmHg 66%
    14:00 +14°C° 0.1 mm 5 mps 750 mmHg 64%
    15:00 +15°C° 0.1 mm 4 mps 750 mmHg 62%
    16:00 +14°C° 0.1 mm 4 mps 749 mmHg 65%
    17:00 +13°C° 0.1 mm 3 mps 749 mmHg 69%
    18:00 +14°C° 0.1 mm 2 mps 749 mmHg 72%
    19:00 +12°C° 0 mm 1 mps 749 mmHg 77%
    20:00 +11°C° 0 mm 1 mps 749 mmHg 81%
    21:00 +8°C° 0 mm 0 mps 749 mmHg 86%
    22:00 +9°C° 0 mm 1 mps 749 mmHg 88%
    23:00 +8°C° 0 mm 2 mps 748 mmHg 91%

    5 June, Friday

    Time Temperature Precipitation Wind Pressure Humidity
    00:00 +7°C° 0 mm 3 mps 748 mmHg 93%
    01:00 +6°C° 0 mm 4 mps 747 mmHg 93%
    02:00 +6°C° 0 mm 4 mps 747 mmHg 93%
    03:00 +6°C° 0 mm 5 mps 746 mmHg 93%
    04:00 +7°C° 0 mm 5 mps 746 mmHg 92%
    05:00 +7°C° 0 mm 6 mps 746 mmHg 90%
    06:00 +8°C° 0 mm 6 mps 746 mmHg 89%
    07:00 +9°C° 0.2 mm 5 mps 746 mmHg 85%
    08:00 +9°C° 0.2 mm 5 mps 746 mmHg 82%
    09:00 +11°C° 0.2 mm 4 mps 746 mmHg 79%
    10:00 +12°C° 0.4 mm 5 mps 746 mmHg 75%
    11:00 +13°C° 0.4 mm 5 mps 746 mmHg 72%
    12:00 +13°C° 0.4 mm 5 mps 746 mmHg 68%
    13:00 +14°C° 0.6 mm 6 mps 746 mmHg 65%
    14:00 +14°C° 0.6 mm 7 mps 746 mmHg 62%
    15:00 +13°C° 0.6 mm 8 mps 746 mmHg 59%
    16:00 +14°C° 0.1 mm 7 mps 746 mmHg 60%
    17:00 +13°C° 0.1 mm 6 mps 746 mmHg 62%
    18:00 +13°C° 0.1 mm 6 mps 746 mmHg 63%
    19:00 +10°C° 0 mm 6 mps 746 mmHg 63%
    20:00 +9°C° 0 mm 6 mps 746 mmHg 63%
    21:00 +7°C° 0 mm 6 mps 747 mmHg 63%
    22:00 +7°C° 0 mm 6 mps 747 mmHg 64%
    23:00 +5°C° 0 mm 6 mps 747 mmHg 65%

    6 June, Saturday

    Time Temperature Precipitation Wind Pressure Humidity
    00:00 +5°C° 0 mm 6 mps 747 mmHg 67%
    01:00 +4°C° 0 mm 6 mps 747 mmHg 70%
    02:00 +4°C° 0 mm 6 mps 747 mmHg 73%
    03:00 +4°C° 0 mm 6 mps 747 mmHg 77%
    04:00 +4°C° 0 mm 7 mps 747 mmHg 74%
    05:00 +5°C° 0 mm 8 mps 747 mmHg 72%
    06:00 +5°C° 0 mm 8 mps 747 mmHg 70%
    07:00 +7°C° 0 mm 9 mps 747 mmHg 67%
    08:00 +8°C° 0 mm 9 mps 747 mmHg 64%
    09:00 +10°C° 0 mm 9 mps 747 mmHg 60%
    10:00 +11°C° 0 mm 9 mps 747 mmHg 60%
    11:00 +11°C° 0 mm 10 mps 747 mmHg 59%
    12:00 +12°C° 0 mm 10 mps 747 mmHg 58%
    13:00 +12°C° 0 mm 10 mps 747 mmHg 61%
    14:00 +11°C° 0 mm 10 mps 747 mmHg 64%
    15:00 +11°C° 0 mm 9 mps 747 mmHg 67%
    16:00 +10°C° 0.1 mm 9 mps 747 mmHg 71%
    17:00 +10°C° 0.1 mm 8 mps 747 mmHg 74%
    18:00 +9°C° 0.1 mm 8 mps 747 mmHg 78%
    19:00 +9°C° 0 mm 8 mps 747 mmHg 76%
    20:00 +9°C° 0 mm 7 mps 747 mmHg 75%
    21:00 +9°C° 0 mm 7 mps 747 mmHg 73%
    22:00 +9°C° 0 mm 7 mps 747 mmHg 74%
    23:00 +9°C° 0 mm 7 mps 747 mmHg 75%

    7 June, Sunday

    Time Temperature Precipitation Wind Pressure Humidity
    00:00 +9°C° 0 mm 7 mps 747 mmHg 77%
    01:00 +9°C° 0.1 mm 7 mps 747 mmHg 81%
    02:00 +8°C° 0.1 mm 6 mps 747 mmHg 85%
    03:00 +8°C° 0.1 mm 6 mps 747 mmHg 89%
    04:00 +8°C° 0.1 mm 6 mps 747 mmHg 89%
    05:00 +9°C° 0.1 mm 6 mps 747 mmHg 89%
    06:00 +9°C° 0.1 mm 6 mps 747 mmHg 89%
    07:00 +10°C° 0.2 mm 7 mps 747 mmHg 86%
    08:00 +11°C° 0.2 mm 7 mps 747 mmHg 83%
    09:00 +12°C° 0.2 mm 7 mps 748 mmHg 80%
    10:00 +12°C° 0.6 mm 7 mps 748 mmHg 82%
    11:00 +13°C° 0.6 mm 6 mps 748 mmHg 84%
    12:00 +13°C° 0.6 mm 6 mps 748 mmHg 86%
    13:00 +14°C° 0.8 mm 6 mps 748 mmHg 84%
    14:00 +14°C° 0.8 mm 6 mps 749 mmHg 83%
    15:00 +15°C° 0.8 mm 6 mps 749 mmHg 81%
    16:00 +15°C° 0.8 mm 6 mps 749 mmHg 83%
    17:00 +14°C° 0.8 mm 5 mps 749 mmHg 85%
    18:00 +14°C° 0.8 mm 5 mps 749 mmHg 87%
    19:00 +13°C° 0.1 mm 5 mps 749 mmHg 90%
    20:00 +12°C° 0.1 mm 5 mps 750 mmHg 93%
    21:00 +9°C° 0.1 mm 5 mps 750 mmHg 95%
    22:00 +9°C° 0 mm 5 mps 750 mmHg 95%
    23:00 +8°C° 0 mm 5 mps 750 mmHg 96%
    Show more